New Roads False River Regiona, LA

4:13 PM CDT on August 22, 2019 (GMT -0500)
False River

Weather History for KHZR - June, 2019

Change the Weather History Date:

Saturday, June 1, 2019

  Actual Average (KBTR) Record (KBTR)
Temperature  
Mean Temperature 80 °F -  
Max Temperature 91 °F 87 °F 100 °F (2011)
Min Temperature 69 °F 66 °F 53 °F (1984)
Cooling Degree Days 15    
Growing Degree Days 30 (Base 50)    
Moisture  
Dew Point 72 °F    
Average Humidity 79    
Maximum Humidity 100    
Minimum Humidity 46    
Precipitation  
Precipitation 0.00 in - - ()
Sea Level Pressure  
Sea Level Pressure 29.93 in    
Wind  
Wind Speed 1 mph ()    
Max Wind Speed 7 mph    
Max Gust Speed -    
Visibility 9.9 miles    
Events      
Averages and records for this station are not official NWS values.
T = Trace of Precipitation, MM = Missing Value Source: Averaged Metar Reports

Daily Weather History Graph

Daily Weather History Graph

Search for Another Location

Airport or City:

Astronomy

Jun. 01, 2019 Rise Set
Actual Time 6:03 AM CDT 8:04 PM CDT
Civil Twilight 5:36 AM CDT 8:31 PM CDT
Nautical Twilight 5:03 AM CDT 9:04 PM CDT
Astronomical Twilight 4:28 AM CDT 9:39 PM CDT
Moon 4:56 AM CDT (6/1) 6:27 PM CDT (6/1)
Length of Visible Light 14h 54m
Length of Day
14h 00m
Waning Crescent, 4% of the Moon is Illuminated
Jun 1
Waning Crescent
Jun 3
New
Jun 10
First Quarter
Jun 17
Full
Jun 25
Last Quarter

Hourly Weather History & Observations

Time (CDT) Temp. Heat Index Dew Point Humidity Pressure Visibility Wind Dir Wind Speed Gust Speed Precip Events Conditions
12:34 AM 75.2 °F - 71.6 °F 89% 29.96 in 10.0 mi Calm Calm - N/A   Clear
12:55 AM 75.2 °F - 71.6 °F 89% 29.95 in 10.0 mi Calm Calm - N/A   Clear
1:15 AM 75.2 °F - 71.6 °F 89% 29.94 in 10.0 mi Calm Calm - N/A   Clear
1:36 AM 73.4 °F - 71.6 °F 94% 29.94 in 10.0 mi Calm Calm - N/A   Scattered Clouds
2:35 AM 71.6 °F - 71.6 °F 100% 29.94 in 10.0 mi Calm Calm - N/A   Clear
3:15 AM 71.6 °F - 71.6 °F 100% 29.93 in 10.0 mi Calm Calm - N/A   Clear
3:35 AM 71.6 °F - 71.6 °F 100% 29.93 in 10.0 mi Calm Calm - N/A   Clear
3:55 AM 71.6 °F - 71.6 °F 100% 29.93 in 10.0 mi Calm Calm - N/A   Clear
4:15 AM 71.6 °F - 71.6 °F 100% 29.92 in 10.0 mi Calm Calm - N/A   Clear
4:34 AM 71.6 °F - 71.6 °F 100% 29.93 in 10.0 mi Calm Calm - N/A   Clear
4:54 AM 71.6 °F - 71.6 °F 100% 29.93 in 10.0 mi SW 3.5 mph - N/A   Clear
5:15 AM 71.6 °F - 69.8 °F 94% 29.93 in 7.0 mi Calm Calm - N/A   Clear
5:55 AM 71.6 °F - 69.8 °F 94% 29.93 in 10.0 mi Calm Calm - N/A   Clear
6:14 AM 69.8 °F - 69.8 °F 100% 29.94 in 7.0 mi Calm Calm - N/A   Clear
6:55 AM 71.6 °F - 71.6 °F 100% 29.94 in 10.0 mi Calm Calm - N/A   Clear
7:15 AM 71.6 °F - 71.6 °F 100% 29.94 in 10.0 mi Calm Calm - N/A   Clear
7:35 AM 73.4 °F - 71.6 °F 94% 29.94 in 10.0 mi Calm Calm - N/A   Clear
7:55 AM 75.2 °F - 71.6 °F 89% 29.95 in 10.0 mi Calm Calm - N/A   Clear
8:16 AM 75.2 °F - 71.6 °F 89% 29.95 in 10.0 mi Calm Calm - N/A   Clear
8:35 AM 77.0 °F - 71.6 °F 83% 29.96 in 10.0 mi Calm Calm - N/A   Clear
8:55 AM 78.8 °F - 73.4 °F 83% 29.96 in 10.0 mi Calm Calm - N/A   Clear
10:35 AM 84.2 °F 89.6 °F 71.6 °F 66% 29.97 in 10.0 mi Calm Calm - N/A   Clear
11:15 AM 84.2 °F 90.9 °F 73.4 °F 70% 29.96 in 10.0 mi West 3.5 mph - N/A   Clear
11:54 AM 87.8 °F 95.6 °F 73.4 °F 62% 29.96 in 10.0 mi WNW 3.5 mph - N/A   Clear
12:34 PM 87.8 °F 93.8 °F 71.6 °F 58% 29.96 in 10.0 mi Calm Calm - N/A   Clear
1:15 PM 89.6 °F 94.7 °F 69.8 °F 52% 29.94 in 10.0 mi West 5.8 mph - N/A   Clear
1:35 PM 89.6 °F 92.2 °F 66.2 °F 46% 29.93 in 10.0 mi West 4.6 mph - N/A   Clear
1:55 PM 89.6 °F 92.2 °F 66.2 °F 46% 29.92 in 10.0 mi NW 5.8 mph - N/A   Clear
2:16 PM 91.4 °F 98.4 °F 71.6 °F 52% 29.92 in 10.0 mi WNW 5.8 mph - N/A   Clear
3:36 PM 89.6 °F 96.2 °F 71.6 °F 55% 29.90 in 10.0 mi NNW 6.9 mph - N/A   Clear
3:55 PM 91.4 °F 98.4 °F 71.6 °F 52% 29.90 in 10.0 mi NNW 5.8 mph - N/A   Clear
4:54 PM 89.6 °F 96.2 °F 71.6 °F 55% 29.88 in 10.0 mi WNW 4.6 mph - N/A   Scattered Clouds
5:15 PM 87.8 °F 93.8 °F 71.6 °F 58% 29.88 in 10.0 mi NNW 5.8 mph - N/A   Scattered Clouds
5:35 PM 89.6 °F 96.2 °F 71.6 °F 55% 29.88 in 10.0 mi North 4.6 mph - N/A   Scattered Clouds
6:54 PM 87.8 °F 93.8 °F 71.6 °F 58% 29.88 in 10.0 mi North 3.5 mph - N/A   Clear
7:56 PM 84.2 °F 90.9 °F 73.4 °F 70% 29.87 in 10.0 mi Calm Calm - N/A   Clear
8:16 PM 82.4 °F 88.2 °F 73.4 °F 74% 29.87 in 10.0 mi NNE 4.6 mph - N/A   Clear
9:15 PM 80.6 °F 85.4 °F 73.4 °F 79% 29.88 in 10.0 mi Calm Calm - N/A   Clear
9:34 PM 80.6 °F 85.4 °F 73.4 °F 79% 29.89 in 10.0 mi Calm Calm - N/A   Clear
11:35 PM 75.2 °F - 73.4 °F 94% 29.91 in 10.0 mi Calm Calm - N/A   Clear